Find SES-6

NORAD ID: 39172 Int'l Des: 2013-026 Owner: SESSL Country: UK operational
HEOCIRCULARGSOGEO

現在のビュー

3D地球を読み込み中...

About SES-6

SES-6 (NORAD 39172) is a satellite launched Jun 3, 2013 by SESSL of UK. It operates in HEO, CIRCULAR, GSO, GEO orbit with a mass of 6140.00 kg.

次回通過

Passes for default location (London). Set your location on the main map for personalized predictions.

高度履歴

Loading altitude history...

軌道要素

1 39172U 13026A 26175.16237992 -.00000254 00000-0 00000-0 0 9996
2 39172 0.0159 358.3502 0002772 98.4775 193.4548 1.00271626 47799
Epoch: Jun 24, 2026 • Age: 15 hours

現在のステータス

高度 35781.4 km
速度 3.08 km/s
衛星直下点 0.01°N, 40.46°W
打ち上げ日 Jun 3, 2013
運用期間 13 years
タイプ communications

技術仕様

分類 Payload
質量 6140.00 kg
乾燥質量 3000.00 kg
総質量 6140.00 kg
長さ 7.70 m
直径 3.30 m
スパン 39.80 m
形状 Box + 2 pan
製造者 EADSB
バスタイプ Eurostar 3000
フェーズステータス Renamed
所有者/国 SESSL/UK

Most Searched